Buffalo, WY

1:39 AM MST on February 24, 2017 (GMT -0700)
Johnson County

Weather History for KBYG - October, 2013

Change the Weather History Date:

Monday, October 28, 2013

  Actual Average Record
Temperature  
Mean Temperature 30 °F 42 °F  
Max Temperature 35 °F 54 °F 72 °F (2008)
Min Temperature 25 °F 31 °F 24 °F (2014)
Degree Days  
Heating Degree Days 35 23  
Month to date heating degree days 597 521  
Since 1 July heating degree days 749 835  
Cooling Degree Days 0 0  
Month to date cooling degree days 0 0  
Year to date cooling degree days 709 491  
Moisture  
Dew Point 27 °F    
Average Humidity 93    
Maximum Humidity 100    
Minimum Humidity 85    
Precipitation  
Precipitation 0.26 in 0.02 in 0.55 in (1998)
Month to date precipitation 2.21 0.90  
Year to date precipitation 9.97 12.48  
Sea Level Pressure  
Sea Level Pressure 30.10 in    
Wind  
Wind Speed 11 mph (SE)    
Max Wind Speed 22 mph    
Max Gust Speed 28 mph    
Visibility 3 miles    
Events Fog , Rain , Snow    
T = Trace of Precipitation, MM = Missing Value Source: NWS Daily Summary

Daily Weather History Graph

Daily Weather History Graph

Search for Another Location

Airport or City:

Trip Planner

Search our weather history database for the weather conditions in past years. The results will help you decide how hot, cold, wet, or windy it might be!

Date:

Astronomy

Oct. 28, 2013 Rise Set
Actual Time 7:39 AM MDT 6:01 PM MDT
Civil Twilight 7:09 AM MDT 6:31 PM MDT
Nautical Twilight 6:35 AM MDT 7:05 PM MDT
Astronomical Twilight 6:01 AM MDT 7:39 PM MDT
Moon 1:21 AM MDT (10/28) 2:57 PM MDT (10/28)
Length of Visible Light 11h 22m
Length of Day
10h 22m
Waning Crescent, 33% of the Moon is Illuminated
Oct 28
Waning Crescent
Nov 3
New
Nov 9
First Quarter
Nov 17
Full
Nov 25
Last Quarter

Hourly Weather History & Observations

Time (MDT) Temp. Windchill Dew Point Humidity Pressure Visibility Wind Dir Wind Speed Gust Speed Precip Events Conditions
12:53 AM 35.1 °F 28.6 °F 32.0 °F 89% 30.01 in 10.0 mi North 8.1 mph - N/A   Mostly Cloudy
1:08 AM 35.6 °F 29.2 °F 30.2 °F 81% 30.06 in 10.0 mi North 8.1 mph - N/A   Overcast
1:26 AM 35.6 °F 29.2 °F 32.0 °F 87% 30.06 in 10.0 mi North 8.1 mph - N/A   Overcast
1:35 AM 35.6 °F 29.2 °F 32.0 °F 87% 30.07 in 10.0 mi North 8.1 mph - N/A   Overcast
1:53 AM 35.1 °F 29.3 °F 32.0 °F 89% 30.02 in 10.0 mi North 6.9 mph - N/A   Overcast
2:53 AM 33.1 °F 26.9 °F 30.0 °F 89% 30.05 in 10.0 mi North 6.9 mph - N/A   Overcast
3:02 AM 33.8 °F 27.0 °F 30.2 °F 87% 30.09 in 10.0 mi North 8.1 mph - N/A   Overcast
3:53 AM 32.0 °F 26.4 °F 30.0 °F 92% 30.06 in 6.0 mi North 5.8 mph - 0.00 in   Overcast
4:30 AM 32.0 °F 26.4 °F 30.2 °F 93% 30.09 in 2.5 mi North 5.8 mph - 0.00 in Rain Light Freezing Rain
4:42 AM 32.0 °F 25.6 °F 30.2 °F 93% 30.09 in 1.8 mi North 6.9 mph - 0.01 in Rain Light Freezing Rain
4:51 AM 32.0 °F 26.4 °F 30.2 °F 93% 30.10 in 0.8 mi NE 5.8 mph - 0.01 in Rain Light Freezing Rain
4:53 AM 32.0 °F 26.4 °F 30.0 °F 92% 30.07 in 0.8 mi NE 5.8 mph - 0.01 in Rain Light Freezing Rain
5:00 AM 32.0 °F 27.5 °F 30.2 °F 93% 30.10 in 1.2 mi Variable 4.6 mph - 0.00 in Rain Light Freezing Rain
5:26 AM 30.2 °F 26.7 °F 30.2 °F 100% 30.10 in 1.8 mi NNE 3.5 mph - 0.01 in Snow Light Snow
5:42 AM 30.2 °F 25.4 °F 28.4 °F 93% 30.11 in 2.0 mi NE 4.6 mph - 0.02 in   Overcast
5:53 AM 30.9 °F 27.5 °F 28.9 °F 92% 30.12 in 2.0 mi ENE 3.5 mph - 0.02 in Rain Light Freezing Rain
6:12 AM 30.2 °F - 30.2 °F 100% 30.12 in 1.8 mi Calm Calm - 0.01 in Snow Light Snow
6:25 AM 30.2 °F 23.4 °F 28.4 °F 93% 30.11 in 0.8 mi ENE 6.9 mph - 0.01 in Snow Light Snow
6:37 AM 30.2 °F 24.3 °F 28.4 °F 93% 30.11 in 1.2 mi East 5.8 mph - 0.02 in Snow Light Snow
6:50 AM 30.2 °F 25.4 °F 28.4 °F 93% 30.11 in 2.5 mi East 4.6 mph - 0.03 in Snow Light Snow
6:53 AM 30.0 °F 25.2 °F 28.9 °F 96% 30.14 in 2.5 mi ENE 4.6 mph - 0.03 in Snow Light Snow
7:06 AM 30.2 °F 25.4 °F 28.4 °F 93% 30.11 in 1.2 mi ENE 4.6 mph - 0.00 in Snow Light Snow
7:22 AM 30.2 °F 24.3 °F 28.4 °F 93% 30.10 in 1.0 mi NE 5.8 mph - 0.01 in Snow Light Snow
7:30 AM 30.2 °F 25.4 °F 28.4 °F 93% 30.10 in 1.2 mi ENE 4.6 mph - 0.01 in Snow Light Snow
7:53 AM 30.0 °F 26.5 °F 28.9 °F 96% 30.15 in 1.0 mi NE 3.5 mph - 0.03 in Snow Light Snow
8:21 AM 30.2 °F - 28.4 °F 93% 30.11 in 0.5 mi Calm Calm - 0.02 in Fog , Snow Light Snow
8:53 AM 30.0 °F 26.5 °F 28.0 °F 92% 30.15 in 0.2 mi ESE 3.5 mph - 0.06 in Fog , Snow Heavy Snow
9:23 AM 28.4 °F 23.3 °F 26.6 °F 93% 30.13 in 1.0 mi ESE 4.6 mph - 0.03 in Snow Light Snow
9:33 AM 28.4 °F 23.3 °F 26.6 °F 93% 30.13 in 1.5 mi ESE 4.6 mph - 0.03 in Snow Light Snow
9:39 AM 28.4 °F 22.2 °F 28.4 °F 100% 30.13 in 0.8 mi East 5.8 mph - 0.03 in Snow Light Snow
9:53 AM 28.9 °F 22.8 °F 28.0 °F 96% 30.17 in 0.8 mi ESE 5.8 mph - 0.05 in Snow Light Snow
10:36 AM 30.2 °F 23.4 °F 28.4 °F 93% 30.13 in 1.8 mi SE 6.9 mph - 0.01 in   Overcast
10:38 AM 30.2 °F 23.4 °F 28.4 °F 93% 30.13 in 3.0 mi SE 6.9 mph - 0.01 in   Overcast
10:53 AM 30.0 °F 20.5 °F 28.0 °F 92% 30.18 in 1.2 mi SE 11.5 mph - 0.01 in Snow Light Snow
10:55 AM 30.2 °F 20.8 °F 28.4 °F 93% 30.13 in 0.8 mi SSE 11.5 mph - 0.00 in Snow Light Snow
11:08 AM 30.2 °F 19.8 °F 28.4 °F 93% 30.12 in 0.5 mi SSE 13.8 mph - 0.01 in Fog , Snow Snow
11:15 AM 30.2 °F 20.8 °F 28.4 °F 93% 30.12 in 1.2 mi SE 11.5 mph - 0.01 in Snow Light Snow
11:25 AM 30.2 °F 20.2 °F 28.4 °F 93% 30.12 in 0.8 mi SE 12.7 mph - 0.01 in Snow Light Snow
11:30 AM 30.2 °F 21.3 °F 28.4 °F 93% 30.12 in 1.0 mi SE 10.4 mph - 0.01 in Snow Light Snow
11:37 AM 30.2 °F 20.8 °F 28.4 °F 93% 30.11 in 2.0 mi SE 11.5 mph - 0.01 in Snow Light Snow
11:50 AM 30.2 °F 21.9 °F 28.4 °F 93% 30.11 in 4.0 mi SE 9.2 mph - 0.01 in   Overcast
11:53 AM 30.0 °F 20.5 °F 28.0 °F 92% 30.17 in 5.0 mi SSE 11.5 mph - 0.01 in   Overcast
12:10 PM 30.2 °F 20.2 °F 28.4 °F 93% 30.11 in 5.0 mi South 12.7 mph - 0.00 in Snow Light Snow
12:29 PM 30.2 °F 21.3 °F 26.6 °F 86% 30.10 in 6.0 mi South 10.4 mph - 0.00 in Snow Light Snow
12:50 PM 30.2 °F 21.3 °F 26.6 °F 86% 30.09 in 2.0 mi SSE 10.4 mph - 0.01 in Snow Light Snow
12:53 PM 30.0 °F 20.5 °F 27.0 °F 88% 30.15 in 2.0 mi South 11.5 mph - 0.01 in Snow Light Snow
1:09 PM 28.4 °F 17.5 °F 26.6 °F 93% 30.09 in 1.2 mi SSE 13.8 mph - 0.00 in Snow Light Snow
1:13 PM 28.4 °F 18.0 °F 26.6 °F 93% 30.09 in 1.0 mi SSE 12.7 mph - 0.00 in Snow Light Snow
1:21 PM 28.4 °F 18.0 °F 26.6 °F 93% 30.08 in 1.2 mi SSE 12.7 mph - 0.00 in Snow Light Snow
1:27 PM 28.4 °F 17.5 °F 26.6 °F 93% 30.08 in 0.8 mi SSE 13.8 mph - 0.00 in Snow Light Snow
1:36 PM 28.4 °F 18.5 °F 26.6 °F 93% 30.08 in 0.8 mi SSE 11.5 mph - 0.00 in Snow Light Snow
1:46 PM 28.4 °F 16.6 °F 26.6 °F 93% 30.07 in 0.5 mi SSE 16.1 mph - 0.01 in Fog , Snow Snow
1:53 PM 28.9 °F 18.2 °F 26.1 °F 89% 30.14 in 0.5 mi SSE 13.8 mph - 0.01 in Fog , Snow Snow
2:23 PM 28.4 °F 18.0 °F 26.6 °F 93% 30.07 in 0.5 mi SSE 12.7 mph - 0.02 in Fog , Snow Snow
2:35 PM 28.4 °F 17.5 °F 26.6 °F 93% 30.07 in 1.2 mi SSE 13.8 mph - 0.02 in Snow Light Snow
2:42 PM 28.4 °F 18.5 °F 26.6 °F 93% 30.07 in 3.0 mi SSE 11.5 mph - 0.02 in Snow Light Snow
2:53 PM 28.0 °F 17.5 °F 26.1 °F 92% 30.14 in 8.0 mi SE 12.7 mph - 0.02 in   Overcast
3:30 PM 28.4 °F 17.5 °F 26.6 °F 93% 30.06 in 10.0 mi SSE 13.8 mph - 0.00 in   Overcast
3:53 PM 28.0 °F 17.5 °F 25.0 °F 88% 30.14 in 5.0 mi SSE 12.7 mph - 0.00 in   Overcast
4:19 PM 28.4 °F 20.4 °F 26.6 °F 93% 30.07 in 1.8 mi SSE 8.1 mph - N/A   Overcast
4:29 PM 28.4 °F 18.5 °F 24.8 °F 86% 30.07 in 1.5 mi SSE 11.5 mph - N/A   Overcast
4:53 PM 28.0 °F 18.6 °F 26.1 °F 92% 30.15 in 1.0 mi SE 10.4 mph - N/A   Overcast
5:08 PM 26.6 °F 16.2 °F 24.8 °F 93% 30.07 in 1.2 mi SE 11.5 mph - N/A   Overcast
5:53 PM 27.0 °F 17.3 °F 26.1 °F 96% 30.15 in 1.5 mi SE 10.4 mph - N/A   Overcast
6:10 PM 26.6 °F 16.2 °F 24.8 °F 93% 30.07 in 2.5 mi SSE 11.5 mph - N/A   Overcast
6:29 PM 26.6 °F 15.7 °F 26.6 °F 100% 30.07 in 3.0 mi SE 12.7 mph - N/A   Overcast
6:43 PM 26.6 °F 16.2 °F 26.6 °F 100% 30.06 in 2.5 mi SE 11.5 mph - N/A   Overcast
6:53 PM 27.0 °F 16.7 °F 26.1 °F 96% 30.16 in 2.5 mi SSE 11.5 mph - N/A   Overcast
7:34 PM 26.6 °F 16.2 °F 26.6 °F 100% 30.07 in 1.2 mi SE 11.5 mph - 0.00 in Snow Light Snow
7:46 PM 28.4 °F 18.5 °F 26.6 °F 93% 30.07 in 2.0 mi SE 11.5 mph - 0.00 in   Overcast
7:53 PM 27.0 °F 16.1 °F 26.1 °F 96% 30.16 in 3.0 mi SSE 12.7 mph - 0.00 in   Overcast
8:53 PM 27.0 °F 16.1 °F 24.1 °F 89% 30.17 in 10.0 mi SSE 12.7 mph - N/A   Overcast
9:23 PM 26.6 °F 14.7 °F 24.8 °F 93% 30.08 in 5.0 mi SSE 15.0 mph - N/A   Overcast
9:53 PM 26.1 °F 12.7 °F 24.1 °F 92% 30.16 in 4.0 mi SSE 18.4 mph - N/A   Overcast
10:17 PM 26.6 °F 13.1 °F 24.8 °F 93% 30.07 in 4.0 mi SSE 19.6 mph - N/A   Overcast
10:49 PM 26.6 °F 13.1 °F 23.0 °F 86% 30.07 in 6.0 mi South 19.6 mph 27.6 mph N/A   Overcast
10:53 PM 25.0 °F 10.6 °F 23.0 °F 92% 30.16 in 7.0 mi South 20.7 mph - N/A   Overcast
11:20 PM 24.8 °F 10.7 °F 23.0 °F 93% 30.06 in 8.0 mi SSE 19.6 mph - N/A   Overcast
11:46 PM 24.8 °F 11.5 °F 23.0 °F 93% 30.05 in 8.0 mi SSE 17.3 mph 25.3 mph N/A   Overcast
11:53 PM 25.0 °F 10.9 °F 21.9 °F 88% 30.15 in 8.0 mi SSE 19.6 mph - N/A   Overcast